[[[{"header":{"parameterUnit":"kt","parameterCategory":2,"dx":1,"dy":1,"la1":30.253999710083008,"la2":30.299108505249023,"lo1":-89.0895004272461,"lo2":-89.04439544677734,"nx":28,"ny":28,"refTime":"2022-10-19T09:00:00:Z","depth":0,"parameterNumber":1,"parameterNumberName":"U-component_of_WINDS"},"data":[1.5723,1.5682,1.5708,1.5672,1.569,1.567,1.5671,1.5675,1.5684,1.5662,1.5654,1.5676,1.5695,1.5691,1.5683,1.5693,1.5687,1.5653,1.567,1.5801,1.582,1.5839,1.5851,1.5651,1.5651,1.553,1.5529,1.5528,1.5814,1.5831,1.582,1.5828,1.5819,1.5867,1.5877,1.5865,1.5846,1.5858,1.5852,1.5835,1.5824,1.5856,1.585,1.583,1.5853,1.5827,1.5828,1.583,1.5971,1.5984,1.5809,1.5809,1.5809,1.5809,1.5809,1.5809,1.5987,1.5961,1.5982,1.5971,1.5982,1.5986,1.5966,1.5995,1.5984,1.5982,1.6016,1.5994,1.6011,1.6018,1.6026,1.6009,1.6043,1.6023,1.6017,1.6011,1.6,1.6168,1.601,1.6011,1.6011,1.6012,1.6012,0,1.6121,1.6145,1.6138,1.6137,1.6131,1.6133,1.614,1.6128,1.6189,1.6178,1.6163,1.616,1.6152,1.6141,1.6142,1.6156,1.6204,1.6213,1.6199,1.6181,1.6165,1.6172,1.6399,1.6217,1.6219,1.622,1.6221,1.6222,1.6296,1.6264,1.6299,1.629,1.6301,1.6285,1.6282,1.6338,1.6331,1.6347,1.6322,1.6312,1.6308,1.628,1.6313,1.6307,1.633,1.6258,1.633,1.6314,1.6328,1.6328,1.6325,1.6242,1.624,1.6237,1.6236,0,1.6392,1.6437,1.6396,1.6435,1.6444,1.6407,1.6439,1.6416,1.6447,1.6419,1.6416,1.6463,1.6449,1.6494,1.6487,1.6511,1.6447,1.6471,1.6441,1.6448,1.6386,1.6391,1.6182,1.6157,1.6366,1.6364,1.6363,0,1.6559,1.6514,1.6585,1.6558,1.6511,1.657,1.652,1.6542,1.656,1.6538,1.6603,1.6581,1.6644,1.6628,1.6664,1.662,1.662,1.6635,1.6645,1.6628,1.6626,1.6625,1.6634,1.667,1.6671,1.6672,1.6673,0,1.6703,1.669,1.6648,1.6652,1.6689,1.6668,1.6682,1.6703,1.6699,1.6701,1.6698,1.6696,1.6694,1.6691,1.6737,1.6784,1.6686,1.676,1.6701,1.67,1.6677,1.6677,1.6482,1.6674,1.6675,1.6675,1.6675,0,1.6845,1.6847,1.678,1.6813,1.6807,1.6779,1.6782,1.677,1.6786,1.6808,1.681,1.6858,1.6826,1.6896,1.6851,1.6899,1.6893,1.6906,1.6903,1.6902,1.6978,1.686,1.6671,1.6652,1.6901,1.6903,1.6905,0,1.6997,1.6942,1.6993,1.6928,1.691,1.6984,1.6954,1.6968,1.6995,1.6982,1.7011,1.6996,1.7058,1.706,1.7032,1.7061,1.6998,1.7071,1.7049,1.7047,1.7041,1.6867,1.6827,1.6708,1.693,1.6927,1.6925,0,1.7121,1.7169,1.7153,1.7161,1.719,1.7175,1.7141,1.714,1.7129,1.7138,1.711,1.7091,1.7136,1.7139,1.7179,1.7147,1.7042,1.72,1.7202,1.7169,1.6947,1.6908,1.6888,1.7076,1.7073,1.707,1.6945,0,1.7322,1.7302,1.7264,1.7279,1.7275,1.7238,1.729,1.7279,1.7318,1.7347,1.7308,1.7332,1.733,1.7321,1.7359,1.7272,1.7294,1.7343,1.7414,1.73,1.726,1.7243,1.7469,1.7472,1.7474,1.7476,0,0,1.7455,1.7428,1.7486,1.7457,1.7457,1.7536,1.7492,1.7501,1.7518,1.7516,1.7557,1.7532,1.755,1.7496,1.7465,1.7465,1.7453,1.7492,1.7354,1.734,1.7328,1.7284,1.7266,1.7479,1.748,1.7481,1.7481,0,1.754,1.7559,1.7515,1.7528,1.755,1.7584,1.7573,1.7608,1.7625,1.7588,1.7653,1.7636,1.7615,1.7625,1.7627,1.75,1.7549,1.7495,1.7409,1.7373,1.7356,1.7342,1.7295,1.7278,1.7486,1.7486,1.7486,0,1.7671,1.7697,1.7682,1.7689,1.7704,1.7683,1.7771,1.7746,1.773,1.7818,1.778,1.78,1.7818,1.7762,1.7738,1.7774,1.7633,1.7687,1.7676,1.7674,1.7642,1.7622,1.7604,1.7836,1.7837,1.7838,0,0,1.7736,1.7719,1.7766,1.7711,1.7716,1.7767,1.7761,1.7801,1.7816,1.7822,1.7849,1.7862,1.7851,1.7842,1.7834,1.7765,1.7773,1.7728,1.7712,1.7698,1.7689,1.7652,1.7633,1.7842,1.7842,1.7842,0,0,1.7768,1.7821,1.7859,1.7802,1.7815,1.7857,1.7821,1.7868,1.7867,1.7877,1.7941,1.7947,1.7895,1.7913,1.7958,1.786,1.793,1.792,1.7851,1.7831,1.7814,1.7811,1.805,0,0,0,0,0,1.7882,1.7815,1.7848,1.7847,1.7855,1.7838,1.784,1.7892,1.794,1.791,1.794,1.7995,1.795,1.7992,1.7988,1.7937,1.7891,1.7883,1.7874,1.7769,1.7748,1.7729,0,0,0,0,0,0,1.7882,1.788,1.785,1.7889,1.7891,1.7841,1.7934,1.7946,1.7945,1.7955,1.7987,1.7996,1.8039,1.7997,1.7993,1.7944,1.8052,1.7888,1.788,1.7874,1.7762,1.7744,1.7729,0,0,0,0,0,1.7882,1.7881,1.7881,1.789,1.7892,1.7946,1.7937,1.7948,1.7948,1.7995,1.8005,1.7987,1.8036,1.8037,1.7995,1.7944,1.8055,1.8053,1.7883,1.7877,1.7872,1.7753,0,0,0,0,0,0,1.7882,1.789,1.7883,1.7886,1.792,1.7949,1.7956,1.7949,1.7988,1.7998,1.7999,1.8007,1.8034,1.8035,1.8035,1.7941,1.8057,1.8056,1.8055,1.7879,1.7874,1.787,0,0,0,0,0,0,1.7892,1.7892,1.7884,1.7919,1.7926,1.7953,1.7958,1.7931,1.7988,1.799,1.7998,1.8002,1.8033,1.8032,1.8033,1.7987,1.8059,1.8057,1.8056,1.8056,1.7875,1.7871,0,0,0,0,0,0,1.7893,1.7893,1.7919,1.7924,1.7931,1.7963,1.7929,1.7935,1.8018,1.7987,1.8027,1.8031,1.8029,1.8031,1.8031,1.7985,1.7986,1.8059,1.8058,1.8057,1.8057,0,0,0,0,0,0,0,1.7893,1.7879,1.7868,1.7928,1.7934,1.7909,1.791,1.7911,1.8019,1.8023,1.8026,1.803,1.8068,1.8066,1.8064,1.7983,0,0,1.8059,1.8058,0,0,0,0,0,0,0,0,1.788,1.7879,1.7868,1.7868,1.7869,1.7909,1.791,1.791,1.802,1.8023,1.8026,1.8028,1.8067,1.8066,1.8065,0,0,0,0,0,0,0,0,0,0,0,0,0,0,0,1.7868,1.7868,0,1.7909,1.791,1.791,1.802,1.8023,1.8025,1.8027,1.8067,1.8066,1.8065,0,0,0,0,0,0,0,0,0,0,0,0,0,0,0,0,0,0,0,0,0,0,0,0,0,0,0,0,0,0,0,0,0,0,0,0,0,0,0,0,0,0,0,0,0,0,0,0,0,0,0,0,0,0,0,0,0,0,0,0,0,0,0,0,0,0,0,0,0]}],[{"header":{"parameterUnit":"kt","parameterCategory":2,"dx":1,"dy":1,"la1":30.253999710083008,"la2":30.299108505249023,"lo1":-89.0895004272461,"lo2":-89.04439544677734,"nx":28,"ny":28,"refTime":"2022-10-19T09:00:00:Z","depth":0,"parameterNumber":2,"parameterNumberName":"V-component_of_WINDS"},"data":[1.6736,1.665,1.6645,1.6544,1.6522,1.6451,1.6423,1.6387,1.6356,1.6268,1.6216,1.62,1.6164,1.6098,1.604,1.6033,1.6007,1.5981,1.5977,1.6102,1.6119,1.6135,1.6155,1.5977,1.5976,1.5847,1.5846,1.5845,1.6827,1.6806,1.6752,1.6695,1.6647,1.667,1.6625,1.6583,1.6518,1.6479,1.6428,1.6349,1.6285,1.6258,1.6194,1.6151,1.6155,1.6133,1.6135,1.6128,1.6262,1.6284,1.6131,1.6131,1.6131,1.6131,1.6131,1.6131,1.6992,1.6942,1.6905,1.6846,1.6816,1.6777,1.6726,1.6709,1.6654,1.6589,1.6593,1.6517,1.6475,1.6395,1.6366,1.6305,1.6327,1.63,1.6293,1.6285,1.6277,1.646,1.6294,1.6295,1.6295,1.6296,1.6296,0,1.7111,1.711,1.7058,1.7004,1.696,1.6917,1.6876,1.6844,1.6838,1.6792,1.6725,1.6685,1.6604,1.6538,1.6477,1.6451,1.6465,1.6466,1.6447,1.6442,1.6447,1.644,1.6657,1.647,1.6472,1.6473,1.6473,1.6474,1.7274,1.7216,1.7175,1.7139,1.7115,1.7057,1.702,1.7019,1.698,1.6927,1.6881,1.6816,1.6764,1.6654,1.663,1.6569,1.6574,1.6503,1.6564,1.6564,1.6568,1.657,1.6563,1.649,1.6488,1.6486,1.6485,0,1.7365,1.7357,1.7266,1.723,1.722,1.7158,1.7126,1.7074,1.7063,1.6988,1.6971,1.6951,1.6883,1.6871,1.6791,1.6786,1.6678,1.6687,1.6693,1.6693,1.6626,1.6631,1.6416,1.6386,1.6575,1.6573,1.6571,0,1.7499,1.7423,1.7415,1.7362,1.7277,1.7279,1.7194,1.7175,1.7141,1.7083,1.7099,1.7044,1.7038,1.6979,1.6972,1.6883,1.6869,1.6858,1.6856,1.6854,1.6855,1.6829,1.6836,1.6859,1.686,1.6861,1.6862,0,1.764,1.7548,1.7463,1.744,1.7394,1.7353,1.7331,1.7293,1.7256,1.7207,1.7182,1.7124,1.7091,1.7044,1.7035,1.7077,1.6927,1.6982,1.6915,1.6915,1.6879,1.6881,1.6698,1.6863,1.6864,1.6864,1.6864,0,1.7746,1.77,1.7579,1.754,1.7515,1.7459,1.7403,1.7352,1.731,1.7303,1.7263,1.7272,1.7195,1.7251,1.7143,1.72,1.7166,1.715,1.7145,1.7134,1.7195,1.7089,1.6919,1.6898,1.7128,1.713,1.7132,0,1.7908,1.7785,1.7786,1.767,1.7611,1.7634,1.7571,1.7534,1.752,1.7465,1.7448,1.7386,1.7425,1.7403,1.7352,1.733,1.7257,1.7341,1.7255,1.7252,1.7263,1.7108,1.7084,1.6958,1.716,1.7157,1.7155,0,1.8033,1.798,1.7959,1.7932,1.7886,1.7836,1.7765,1.7704,1.7668,1.7625,1.7562,1.7476,1.75,1.7465,1.7465,1.7412,1.7307,1.7445,1.7444,1.7418,1.7174,1.7152,1.7131,1.7318,1.7315,1.7312,1.7177,0,1.8189,1.8127,1.8072,1.8014,1.7975,1.7903,1.7893,1.7853,1.7858,1.7844,1.7753,1.7718,1.7653,1.7628,1.7632,1.7517,1.7533,1.756,1.761,1.751,1.7464,1.7446,1.7678,1.768,1.7681,1.7682,0,0,1.8344,1.8255,1.8259,1.8191,1.8157,1.8182,1.8105,1.8075,1.8013,1.7988,1.8018,1.7889,1.7858,1.7748,1.7716,1.7691,1.7667,1.7703,1.7558,1.7545,1.7532,1.7484,1.7466,1.7684,1.7685,1.7685,1.7685,0,1.8398,1.8373,1.8299,1.8269,1.8225,1.8215,1.8198,1.8157,1.8144,1.8057,1.8075,1.8019,1.7916,1.788,1.7849,1.7718,1.7732,1.7699,1.7632,1.7571,1.7556,1.7542,1.7492,1.7475,1.7688,1.7688,1.7688,0,1.8517,1.8489,1.8453,1.8382,1.8352,1.8291,1.8343,1.8276,1.823,1.8256,1.8168,1.8147,1.8099,1.7997,1.7951,1.7975,1.7791,1.7848,1.784,1.7834,1.7774,1.7756,1.774,1.7954,1.7955,1.7956,0,0,1.8564,1.8508,1.8477,1.8392,1.8373,1.8357,1.8323,1.8325,1.8284,1.8267,1.824,1.8197,1.8137,1.8097,1.8041,1.7932,1.7919,1.7882,1.7869,1.7859,1.7847,1.7785,1.7766,1.7959,1.7959,1.7959,0,0,1.8586,1.8548,1.8562,1.8463,1.8425,1.8387,1.8334,1.8349,1.8297,1.8304,1.8301,1.8289,1.8194,1.8172,1.8223,1.8057,1.8108,1.8095,1.8075,1.8059,1.8047,1.8053,1.8268,0,0,0,0,0,1.8637,1.8554,1.8566,1.8549,1.8457,1.838,1.8368,1.8366,1.8402,1.836,1.8339,1.8358,1.8199,1.8244,1.8225,1.8166,1.8007,1.7999,1.7991,1.7939,1.7922,1.7908,0,0,0,0,0,0,1.863,1.8608,1.8569,1.8527,1.8507,1.8383,1.8443,1.844,1.8406,1.8411,1.8362,1.8357,1.8351,1.8254,1.8236,1.8181,1.8274,1.8004,1.7996,1.799,1.7933,1.792,1.7908,0,0,0,0,0,1.8624,1.8607,1.8461,1.8528,1.851,1.8487,1.8446,1.8444,1.8417,1.8385,1.8381,1.8419,1.835,1.8335,1.8243,1.8189,1.8286,1.8279,1.7999,1.7993,1.7988,1.7927,0,0,0,0,0,0,1.862,1.8603,1.8458,1.8452,1.856,1.8494,1.8484,1.8448,1.8394,1.8389,1.8442,1.8447,1.8348,1.8337,1.8325,1.8192,1.8296,1.8289,1.8285,1.7995,1.799,1.7986,0,0,0,0,0,0,1.8613,1.8598,1.8455,1.8495,1.8494,1.85,1.8491,1.8413,1.8392,1.8453,1.8456,1.8445,1.8364,1.8337,1.8328,1.8206,1.8303,1.8297,1.8292,1.829,1.7991,1.7988,0,0,0,0,0,0,1.8607,1.8594,1.8497,1.8496,1.8495,1.8431,1.843,1.8336,1.843,1.8455,1.8439,1.8442,1.8364,1.8355,1.833,1.8212,1.8207,1.8303,1.8299,1.8295,1.8293,0,0,0,0,0,0,0,1.8602,1.8686,1.8492,1.8496,1.8496,1.8399,1.8398,1.8396,1.8431,1.8434,1.8438,1.8441,1.8339,1.8332,1.8325,1.8217,0,0,1.8303,1.83,0,0,0,0,0,0,0,0,1.8691,1.8687,1.8491,1.849,1.8489,1.8399,1.8398,1.8397,1.8432,1.8434,1.8437,1.8439,1.8337,1.8332,1.8326,0,0,0,0,0,0,0,0,0,0,0,0,0,0,0,1.8491,1.849,0,1.8399,1.8398,1.8397,1.8432,1.8434,1.8436,1.8438,1.8336,1.8331,1.8326,0,0,0,0,0,0,0,0,0,0,0,0,0,0,0,0,0,0,0,0,0,0,0,0,0,0,0,0,0,0,0,0,0,0,0,0,0,0,0,0,0,0,0,0,0,0,0,0,0,0,0,0,0,0,0,0,0,0,0,0,0,0,0,0,0,0,0,0,0]}]]]